TimePST,TemperatureF,Dew PointF,Humidity,Sea Level PressureIn,VisibilityMPH,Wind Direction,Wind SpeedMPH,Gust SpeedMPH,PrecipitationIn,Events,Conditions,WindDirDegrees,DateUTC
12:51 AM,63.0,50.0,63,29.86,10.0,South,8.1,-,N/A,,Overcast,180,2013-11-04 08:51:00
1:51 AM,63.0,48.9,60,29.85,10.0,SE,4.6,-,N/A,,Overcast,130,2013-11-04 09:51:00
2:51 AM,63.0,50.0,63,29.83,10.0,SE,5.8,-,N/A,,Overcast,140,2013-11-04 10:51:00
3:51 AM,63.0,50.0,63,29.82,10.0,SE,6.9,-,N/A,,Overcast,140,2013-11-04 11:51:00
4:51 AM,63.0,48.9,60,29.81,10.0,SE,11.5,-,N/A,,Overcast,130,2013-11-04 12:51:00
5:12 AM,62.6,48.2,59,29.82,10.0,SE,5.8,-,N/A,,Overcast,130,2013-11-04 13:12:00
5:51 AM,63.0,48.0,58,29.85,10.0,ESE,3.5,-,N/A,,Overcast,110,2013-11-04 13:51:00
6:51 AM,61.0,50.0,67,29.86,6.0,South,5.8,-,0.00,Rain,Light Rain,190,2013-11-04 14:51:00
7:51 AM,62.1,48.9,62,29.88,10.0,South,5.8,-,0.00,,Overcast,170,2013-11-04 15:51:00
8:51 AM,63.0,48.9,60,29.90,10.0,South,9.2,-,N/A,,Overcast,170,2013-11-04 16:51:00
9:51 AM,63.0,48.0,58,29.90,10.0,South,10.4,-,N/A,,Mostly Cloudy,170,2013-11-04 17:51:00
10:51 AM,63.0,48.9,60,29.90,10.0,South,6.9,-,N/A,,Mostly Cloudy,190,2013-11-04 18:51:00
11:51 AM,64.9,48.0,54,29.88,10.0,South,9.2,-,N/A,,Mostly Cloudy,180,2013-11-04 19:51:00
12:51 PM,64.0,48.9,58,29.87,10.0,South,8.1,-,N/A,,Mostly Cloudy,180,2013-11-04 20:51:00
1:51 PM,64.0,50.0,60,29.86,10.0,SSW,9.2,-,N/A,,Mostly Cloudy,200,2013-11-04 21:51:00
2:51 PM,64.0,51.1,63,29.86,10.0,South,9.2,-,N/A,,Mostly Cloudy,180,2013-11-04 22:51:00
3:51 PM,64.0,51.1,63,29.86,10.0,South,8.1,-,N/A,,Mostly Cloudy,180,2013-11-04 23:51:00
4:51 PM,63.0,52.0,67,29.86,10.0,South,6.9,-,N/A,,Mostly Cloudy,190,2013-11-05 00:51:00
5:51 PM,63.0,52.0,67,29.88,10.0,South,6.9,-,N/A,,Scattered Clouds,180,2013-11-05 01:51:00
6:51 PM,63.0,53.1,70,29.91,10.0,Calm,Calm,-,N/A,,Scattered Clouds,0,2013-11-05 02:51:00
7:51 PM,62.1,52.0,70,29.91,10.0,Calm,Calm,-,N/A,,Partly Cloudy,0,2013-11-05 03:51:00
8:51 PM,61.0,52.0,72,29.93,9.0,NNE,3.5,-,N/A,,Partly Cloudy,20,2013-11-05 04:51:00
9:51 PM,60.1,51.1,72,29.94,10.0,NE,3.5,-,N/A,,Partly Cloudy,50,2013-11-05 05:51:00
10:51 PM,59.0,51.1,75,29.95,10.0,NE,3.5,-,N/A,,Clear,40,2013-11-05 06:51:00
11:51 PM,57.9,50.0,75,29.95,10.0,NE,4.6,-,N/A,,Clear,40,2013-11-05 07:51:00